Greenville Downtown, SC

11:26 AM EDT on April 26, 2017 (GMT -0400)
Greenville Downtown

Weather History for KGMU - December, 2013

Change the Weather History Date:

Wednesday, December 4, 2013

  Actual Average Record
Temperature  
Mean Temperature 58 °F -  
Max Temperature 62 °F 55 °F 75 °F (1998)
Min Temperature 53 °F 37 °F 23 °F (2000)
Degree Days  
Heating Degree Days 8    
Growing Degree Days 8 (Base 50)    
Moisture  
Dew Point 55 °F    
Average Humidity 94    
Maximum Humidity 100    
Minimum Humidity 88    
Precipitation  
Precipitation 0.08 in - - ()
Sea Level Pressure  
Sea Level Pressure 30.02 in    
Wind  
Wind Speed 2 mph (NE)    
Max Wind Speed 7 mph    
Max Gust Speed -    
Visibility 2 miles    
Events Fog , Rain    
Averages and records for this station are not official NWS values.
T = Trace of Precipitation, MM = Missing Value Source: NWS Daily Summary

Daily Weather History Graph

Daily Weather History Graph

Search for Another Location

Airport or City:

Trip Planner

Search our weather history database for the weather conditions in past years. The results will help you decide how hot, cold, wet, or windy it might be!

Date:

Astronomy

Dec. 04, 2013 Rise Set
Actual Time 7:21 AM EST 5:17 PM EST
Civil Twilight 6:53 AM EST 5:45 PM EST
Nautical Twilight 6:22 AM EST 6:17 PM EST
Astronomical Twilight 5:51 AM EST 6:47 PM EST
Moon 8:49 AM EST (12/4) 7:25 PM EST (12/4)
Length of Visible Light 10h 52m
Length of Day
9h 56m
Waxing Crescent, 4% of the Moon is Illuminated
Dec 4
Waxing Crescent
Dec 9
First Quarter
Dec 17
Full
Dec 25
Last Quarter
Jan 1
New

Hourly Weather History & Observations

Time (EST) Temp. Dew Point Humidity Pressure Visibility Wind Dir Wind Speed Gust Speed Precip Events Conditions
12:03 AM 53.6 °F 51.8 °F 94% 29.96 in 3.0 mi Calm Calm - N/A   Overcast
12:11 AM 53.6 °F 51.8 °F 94% 29.96 in 2.5 mi NE 3.5 mph - N/A   Overcast
12:19 AM 53.6 °F 51.8 °F 94% 29.96 in 3.0 mi Calm Calm - N/A   Overcast
12:28 AM 53.6 °F 51.8 °F 94% 29.96 in 2.5 mi Calm Calm - N/A   Overcast
12:43 AM 53.6 °F 51.8 °F 94% 29.95 in 1.5 mi NNE 4.6 mph - 0.00 in Rain Light Rain
12:53 AM 54.0 °F 52.0 °F 93% 29.95 in 1.8 mi NNE 3.5 mph - 0.01 in   Overcast
1:53 AM 53.1 °F 52.0 °F 96% 29.96 in 1.5 mi North 4.6 mph - N/A   Overcast
2:50 AM 53.6 °F 51.8 °F 94% 29.97 in 3.0 mi NNE 5.8 mph - 0.02 in Rain Light Rain
2:53 AM 53.1 °F 52.0 °F 96% 29.96 in 4.0 mi NE 4.6 mph - 0.02 in Rain Light Rain
3:30 AM 53.6 °F 51.8 °F 94% 29.97 in 1.8 mi NE 3.5 mph - 0.00 in Rain Light Rain
3:53 AM 53.1 °F 52.0 °F 96% 29.96 in 1.0 mi ENE 3.5 mph - 0.00 in   Overcast
4:03 AM 53.6 °F 51.8 °F 94% 29.96 in 3.0 mi North 3.5 mph - N/A   Overcast
4:07 AM 53.6 °F 51.8 °F 94% 29.96 in 1.8 mi NNE 4.6 mph - N/A   Overcast
4:22 AM 53.6 °F 51.8 °F 94% 29.96 in 0.5 mi Variable 4.6 mph - N/A Fog Fog
4:53 AM 53.1 °F 52.0 °F 96% 29.96 in 1.2 mi Calm Calm - 0.01 in Rain Light Rain
5:05 AM 53.6 °F 51.8 °F 94% 29.97 in 2.0 mi Calm Calm - 0.01 in Rain Rain
5:23 AM 53.6 °F 51.8 °F 94% 29.97 in 4.0 mi Calm Calm - 0.03 in Rain Light Rain
5:53 AM 53.1 °F 52.0 °F 96% 29.98 in 5.0 mi North 3.5 mph - 0.04 in   Overcast
6:30 AM 53.6 °F 51.8 °F 94% 30.00 in 2.0 mi North 4.6 mph - N/A   Overcast
6:53 AM 53.1 °F 52.0 °F 96% 30.00 in 2.5 mi North 4.6 mph - N/A   Overcast
7:53 AM 54.0 °F 52.0 °F 93% 30.01 in 2.5 mi NNE 3.5 mph - N/A   Overcast
8:00 AM 53.6 °F 51.8 °F 94% 30.01 in 0.5 mi NNE 4.6 mph - N/A Fog Fog
8:15 AM 53.6 °F 51.8 °F 94% 30.02 in 0.2 mi NNE 3.5 mph - N/A Fog Fog
8:53 AM 54.0 °F 53.1 °F 97% 30.04 in 0.5 mi Calm Calm - N/A Fog Fog
9:26 AM 55.4 °F 53.6 °F 94% 30.05 in 1.2 mi Calm Calm - N/A   Overcast
9:53 AM 55.0 °F 54.0 °F 96% 30.06 in 1.5 mi Calm Calm - N/A   Overcast
10:08 AM 55.4 °F 53.6 °F 94% 30.07 in 2.5 mi Calm Calm - N/A   Overcast
10:20 AM 55.4 °F 53.6 °F 94% 30.07 in 4.0 mi Calm Calm - N/A   Overcast
10:53 AM 55.9 °F 54.0 °F 93% 30.06 in 2.5 mi NNE 3.5 mph - N/A   Overcast
11:53 AM 57.0 °F 55.9 °F 96% 30.05 in 2.5 mi East 3.5 mph - N/A   Overcast
12:53 PM 57.9 °F 55.9 °F 93% 30.02 in 1.8 mi Calm Calm - N/A   Overcast
1:19 PM 57.2 °F 57.2 °F 100% 30.01 in 0.5 mi SE 3.5 mph - N/A Fog Fog
1:31 PM 57.2 °F 57.2 °F 100% 30.01 in 0.2 mi Calm Calm - N/A Fog Fog
1:53 PM 57.9 °F 57.0 °F 97% 30.01 in 0.2 mi Calm Calm - N/A Fog Fog
2:53 PM 59.0 °F 57.0 °F 93% 30.00 in 0.2 mi Calm Calm - N/A Fog Fog
3:18 PM 59.0 °F 57.2 °F 94% 30.01 in 0.5 mi Calm Calm - 0.00 in Fog , Rain Light Rain
3:29 PM 59.0 °F 57.2 °F 94% 30.01 in 1.2 mi Calm Calm - 0.00 in   Overcast
3:43 PM 59.0 °F 57.2 °F 94% 30.01 in 0.5 mi Calm Calm - 0.00 in Fog Fog
3:53 PM 59.0 °F 57.9 °F 96% 30.01 in 1.0 mi Calm Calm - 0.00 in   Overcast
4:15 PM 59.0 °F 57.2 °F 94% 30.02 in 1.8 mi Calm Calm - N/A   Overcast
4:24 PM 59.0 °F 57.2 °F 94% 30.02 in 2.0 mi Calm Calm - N/A   Overcast
4:53 PM 60.1 °F 57.9 °F 93% 30.03 in 3.0 mi Calm Calm - N/A   Overcast
5:09 PM 60.8 °F 57.2 °F 88% 30.03 in 2.5 mi Calm Calm - N/A   Overcast
5:19 PM 60.8 °F 57.2 °F 88% 30.03 in 4.0 mi Calm Calm - N/A   Overcast
5:53 PM 60.1 °F 57.9 °F 93% 30.03 in 4.0 mi Calm Calm - N/A   Overcast
6:16 PM 60.8 °F 57.2 °F 88% 30.03 in 2.5 mi Calm Calm - N/A   Overcast
6:44 PM 60.8 °F 57.2 °F 88% 30.05 in 3.0 mi Calm Calm - N/A   Overcast
6:53 PM 60.1 °F 57.9 °F 93% 30.04 in 3.0 mi Calm Calm - N/A   Overcast
7:13 PM 60.8 °F 57.2 °F 88% 30.05 in 3.0 mi NNW 3.5 mph - N/A   Overcast
7:53 PM 60.1 °F 57.9 °F 93% 30.05 in 4.0 mi South 3.5 mph - N/A   Overcast
8:53 PM 61.0 °F 59.0 °F 93% 30.06 in 5.0 mi SW 4.6 mph - N/A   Overcast
9:01 PM 60.8 °F 59.0 °F 94% 30.07 in 4.0 mi SSW 4.6 mph - 0.00 in Rain Light Rain
9:15 PM 62.6 °F 60.8 °F 94% 30.07 in 5.0 mi SSW 6.9 mph - 0.00 in   Overcast
9:53 PM 61.0 °F 59.0 °F 93% 30.06 in 4.0 mi SSW 6.9 mph - 0.00 in   Overcast
10:53 PM 62.1 °F 60.1 °F 93% 30.07 in 4.0 mi SSW 5.8 mph - N/A   Overcast
11:19 PM 60.8 °F 60.8 °F 100% 30.10 in 2.0 mi South 4.6 mph - N/A   Overcast
11:29 PM 60.8 °F 60.8 °F 100% 30.10 in 1.5 mi South 4.6 mph - N/A   Overcast
11:49 PM 60.8 °F 59.0 °F 94% 30.08 in 0.8 mi South 4.6 mph - N/A   Mist
11:53 PM 61.0 °F 59.0 °F 93% 30.07 in 0.8 mi South 4.6 mph - N/A   Mist